loading
DOY 175 | 2024-06-23T10:15:57Z

THOR ABLESTAR DEB, 420

Orbit data source: Space-Track

THOR ABLESTAR DEB, 420 is space debris in LEO originally from a launch on Thu, 29 Jun 1961 UTC launched from the Air Force Eastern Test Range (AFETR). Debris objects in space refer to the collection of defunct objects orbiting the Earth. Examples of debris include non-operational satellites, rocket bodies, and fragments generated from explosions, collisions, or faulty payload assembly.

Loading next visibility...
Loading greatness...
THOR ABLESTAR DEB details
NORAD ID420
COSPAR ID
1961-015EV
Orbit
LEO
Last TLE update12 hours ago
Origin
Flag of USUSAF SSD (US)
ManufacturerUnknown
BusUnknown
MotorUnknown
MassWet unknown, Dry mass unknown
Launch date (UTC)
1961-06-29 (63 years ago)
Launch vehicleUnknown
Launch site
Air Force Eastern Test Range (AFETR)
Object type
Payload
Rocket body
Debris
Radar Cross SectionSmall (<0.1 m²)
Predictive object data (real-time)
Latitude-13.14936°
Longitude114.49526°
Altitude747.87 km
Speed7.504 km/s
Apparent Right ascension03h 19m 25s
Apparent Declination-49° 40' 19"
Sunlit
Object is in daylight
Predictive observer data (real-time)
Local Sidereal Time21:23:47
Azimuth132.486° SE
Elevation-28.667°
Doppler factor1
Orbital elements
Apogee845.079 km
Perigee726.692 km
Semi-major axis7,164.023 km
Eccentricity0.0082626
Inclination66.8152°
RAAN11.9503°
Arg. of periapsis27.9633°
True anomaly332.14695°
Mean anomaly332.5869°
Mean motion3.57938 °/min
BSTAR0.00044978
Period100.58 mins
Definitive object data (Epoch: 2024-06-22T22:35:30.613Z)
Latitude-0.00006°
Longitude121.47528°
Altitude737.183 km
Speed7.514 km/s
True Right ascension00h 47m 48s
True Declination0° 00' 00"
Sunlit
Object was in daylight at TLE epoch
TLE from 12 hours ago
0 THOR ABLESTAR DEB
1   420U 61015EV  24174.94132655  .00001152  00000-0  44978-3 0  9996
2   420  66.8152  11.9503 0082626  27.9633 332.5869 14.31259084250234
Epoch: 2024-06-22T22:35Z
No data available

THOR ABLESTAR DEB Visibility forecast

Observer location: 39.9160978°, -105.1181434, 0m alt.

THOR ABLESTAR DEB is not visible in the next 10 days
Span
Click to sort rows by Start time (UTC) header in descending order
Start Az.
Max El. time (UTC)
Max El. Az.
Max El.
End time (UTC)
End Az.